Vorticity
nan nan nan nan nan nan nan nan nan nan nan nan nan nan nan nan nan nan nan nan nan nan nan nan nan nan nan nan nan nan nan nan
nan 7 7 4 -1 1 3 4 4 5 5 6 6 6 4 5 5 6 7 7 6 7 7 8 8 8 6 6 10 11 8 nan
nan 7 8 6 4 1 2 2 2 4 4 7 9 5 3 3 4 4 6 5 5 6 7 7 10 10 6 9 13 9 7 nan
nan 6 8 8 6 4 4 3 3 3 5 7 7 6 6 5 3 4 5 6 6 5 7 9 11 11 6 8 9 7 9 nan
nan 8 8 8 7 7 7 6 5 3 4 8 9 8 8 8 7 6 4 7 8 6 8 6 6 9 7 6 6 9 9 nan
nan 8 8 8 8 7 8 7 7 6 3 8 10 8 7 8 8 6 8 5 6 9 7 5 6 7 7 7 9 10 9 nan
nan 8 9 8 9 8 7 7 7 6 5 7 10 8 8 8 8 8 7 7 7 7 7 8 7 7 7 7 8 9 9 nan
nan 7 9 9 8 8 8 6 6 7 6 6 9 9 8 8 8 8 8 7 7 8 8 9 8 7 6 8 10 10 9 nan
nan 8 8 9 9 7 7 7 7 6 6 5 7 8 8 9 9 8 8 6 7 9 9 9 8 6 7 10 10 10 10 nan
nan 8 8 8 8 8 7 7 7 7 7 5 5 7 9 10 8 7 8 9 8 8 9 9 8 7 8 9 10 10 9 nan
nan 7 7 8 9 8 6 6 7 8 8 6 6 7 9 11 8 6 9 9 8 8 8 8 8 8 7 10 12 12 8 nan
nan 7 7 9 9 7 6 6 6 7 7 6 7 7 8 11 8 7 10 9 7 7 8 10 8 9 9 12 13 11 4 nan
nan 8 7 9 8 8 7 6 7 7 6 6 8 8 8 9 8 7 9 9 6 9 8 8 9 10 11 12 14 7 2 nan
nan 6 6 9 8 9 8 8 7 6 7 6 6 7 7 8 8 8 9 9 7 8 10 10 8 8 11 12 12 9 4 nan
nan 5 7 8 9 10 10 9 7 6 7 6 6 7 7 7 8 9 10 10 8 7 8 9 10 5 10 14 8 4 9 nan
nan 5 9 8 9 8 8 9 8 8 8 7 6 6 7 7 8 8 10 9 9 9 9 9 9 8 8 8 9 8 8 nan
nan 8 10 8 8 8 8 9 9 8 7 6 8 7 7 8 8 8 10 9 8 9 9 10 10 8 7 5 9 13 8 nan
nan 10 8 7 7 8 7 8 9 9 9 9 8 8 7 7 8 9 9 9 10 11 8 9 9 9 7 8 9 9 10 nan
nan 7 7 6 7 8 7 8 9 9 9 8 8 10 8 6 7 9 9 8 9 10 10 10 10 8 8 9 9 11 10 nan
nan nan nan nan nan nan nan nan nan nan nan nan nan nan nan nan nan nan nan nan nan nan nan nan nan nan nan nan nan nan nan nan
CAPE
0 0 0 1 6 4 0 0 0 0 0 0 0 0 0 4 6 12 14 7 6 4 4 5 2 0 0 0 0 0 0 0
0 0 0 0 0 0 0 0 0 0 0 0 0 0 0 0 3 7 10 6 5 4 3 0 1 0 0 0 0 0 0 0
0 0 0 0 0 0 0 0 0 0 0 0 0 0 0 0 0 1 3 6 3 1 3 1 0 0 0 0 0 0 0 0
0 0 0 0 0 0 0 0 0 0 0 0 0 0 0 0 0 0 0 5 1 0 0 0 0 0 0 0 0 0 0 0
0 0 0 0 0 0 0 0 0 0 0 0 0 0 0 0 0 0 0 0 0 0 0 0 0 0 0 0 0 0 0 0
0 0 0 0 0 0 0 0 0 0 0 0 0 0 0 0 0 0 0 0 0 0 0 0 0 0 0 0 0 0 0 0
0 0 0 0 0 0 0 0 0 0 0 0 0 0 0 0 0 0 0 0 0 0 0 0 0 0 0 0 0 0 0 0
0 0 0 0 0 0 0 0 0 0 0 0 0 0 0 0 0 0 0 0 0 0 0 0 0 0 0 0 0 0 0 0
0 0 0 0 0 0 0 0 0 0 0 0 0 0 0 0 0 0 0 6 0 0 0 0 0 0 0 0 0 0 0 1
0 0 0 0 0 0 0 0 0 0 0 0 0 0 0 0 0 0 3 7 0 0 1 1 0 0 0 0 0 0 0 0
0 0 0 0 0 0 0 0 0 0 0 0 1 0 0 0 0 0 2 4 0 1 1 6 10 1 0 0 0 0 0 0
0 0 0 0 0 0 0 0 0 0 0 0 0 0 1 0 0 1 2 1 1 1 5 6 7 7 3 0 0 0 0 0
0 0 0 0 0 0 0 0 0 0 0 0 1 1 1 1 1 0 0 3 5 4 4 7 5 12 6 0 0 0 2 0
0 0 0 0 0 0 0 0 0 0 0 0 0 1 2 2 4 2 4 3 5 6 7 7 11 10 20 3 0 0 0 0
0 0 0 0 0 0 0 0 0 0 0 0 0 1 3 6 7 6 3 5 6 8 8 6 12 6 7 28 13 2 8 0
0 0 0 0 0 0 0 0 0 0 0 0 0 1 4 5 8 5 1 5 7 8 7 5 10 9 10 13 10 14 23 1
0 0 0 0 0 0 0 0 0 0 0 0 0 1 2 3 6 6 2 4 7 10 6 2 2 13 12 9 19 12 13 19
0 0 0 0 0 0 0 0 0 0 0 0 1 0 3 6 5 3 1 2 8 9 1 3 2 5 4 10 18 15 19 12
0 0 0 0 0 0 0 0 0 0 0 0 0 1 3 10 8 1 0 3 9 4 5 9 4 7 9 22 19 21 23 11
0 0 0 0 0 0 0 0 0 0 0 0 0 1 4 11 6 0 0 5 11 10 14 12 6 20 18 21 22 20 14 14